Location: Cabrera Baja
(40.4089°N, 4.3354°W)
Time: 18:17:13
(UTC+00:00)

Cosmos 2082 Rocket - Pass Details

Date: 14 July 2020
Orbit: 834 x 853 km, 71.0° (Epoch: 11 August)

Event Time Altitude Azimuth Distance (km) Brightness Sun altitude
Exits shadow 02:22:45 40° 172° (S) 1,243 2.7 -22.0°
Maximum altitude 02:24:42 63° 109° (ESE) 951 2.4 -21.8°
Drops below altitude 10° 02:30:20 10° 30° (NNE) 2,486 5.8 -21.3°
Sets 02:32:49 0° 27° (NNE) 3,424 6.9 -21.0°
